Погода в Новоильинке

Россия / Томская область     56°59′02″N   84°05′16″E
темп.,
°C
ветер,
м/с
пор.,
м/с
влажн.,
%
обл.,
%
осадки,
мм/ч
давл.,
гПа
погр.,
м
12 мая, ср
ср1201:00+10ссв4106491 0.0 1020222
04:00+8с36745 0.0 1020107
07:00+9с35724 0.0 1020150
10:00+15с34503 0.0 1019584
13:00+19с22365 0.0 10181883
16:00+19з2233100 0.0 10162216
19:00+19з24323 0.0 10162300
22:00+13зсз22465 0.0 101618
13 мая, чт
чт1301:00+12ююз22426 0.0 101512
04:00+8зсз22546 0.0 101513
07:00+9зсз358983 0.0 1015187
10:00+13зюз357081 0.1 10151015
13:00+11зсз4679100 0.4 1014580
16:00+13зсз2363100 0.2 10141148
19:00+11ссз4664100 0.3 1014918
22:00+8сз228021 0.0 101538
14 мая, пт
пт1401:00+6зсз23865 0.0 101541
04:00+5сз39886 0.0 1015233
07:00+7сз4118291 0.0 1017703
10:00+7ссз5876100 0.3 1019968
13:00+12ссз574153 0.3 10201666
16:00+13сз563031 0.0 10201653
19:00+13зсз4631100 0.0 10201475
22:00+10юз1145100 0.0 102010
15 мая, сб
сб1501:00+11юз6144998 0.0 1018539
04:00+11зюз61454100 0.3 1016453
07:00+11зюз51270100 0.7 1017454
10:00+16зсз576375 0.5 1017730
13:00+20зсз355439 0.5 10171442
16:00+21зсз345018 1.4 10161591
19:00+22зюз334699 1.5 10141521
22:00+15ююз3888100 3.9 1014188
16 мая, вс
вс1601:00+14зюз31089100 4.1 1012456
04:00+14зюз41092100 0.6 1010370
07:00+14з4992100 0.8 1010506
10:00+14сз478593 0.1 1011628
13:00+16зсз4677100 0.1 1012884
16:00+17зсз4671100 0.1 10121008
19:00+17ссв356794 0.1 1011594
22:00+13ссв229056 0.0 101336